User: anonymous   Login
Location: La Tine
(46.4708°N, 7.0525°E)
Time: 16:26:40
(UTC+00:00)
Language:

Cosmos 1833 Rocket - Orbit

View from above orbital plane
View from above orbital plane
View from above satellite
View from above satellite

Ground track
Ground track

The orbit data is extracted from the following two-line orbital elements,

1 17590U 87027B   21125.92139167 -.00000129  00000-0 -40605-4 0  9998
2 17590  71.0053  42.3054 0007178 290.4398  69.5954 14.16798473764832
Epoch (UTC): 05 May 2021 22:06:48
Eccentricity: 0.0007178
inclination: 71.0053°
perigee height: 831 km
apogee height: 841 km
right ascension of ascending node: 42.3054°
argument of perigee: 290.4398°
revolutions per day: 14.16798473
mean anomaly at epoch: 69.5954°
orbit number at epoch: 76483

The dashed part of the orbit path shows where the satellite is in the earth's shadow,  

DLR